Location: Silverdale
(47.6506°N, 122.6941°W)
Time: 03:29:51
(UTC+00:00)

Altair - Pass Details

Date: 12 October 2022
Orbit: 1501 x 1682 km, 47.2° (Epoch: 05 December)

Event Time Altitude Azimuth Distance (km) Brightness Sun altitude
Rises 08:37:13 0° 187° (S) 4,666 - -48.9°
Reaches altitude 10° 08:41:13 10° 172° (S) 3,713 - -48.7°
Maximum altitude 08:47:36 21° 128° (SE) 3,002 - -48.4°
Exits shadow 08:52:14 15° 94° (E) 3,452 9.4 -48.1°
Drops below altitude 10° 08:54:06 10° 85° (E) 3,821 9.7 -48.0°
Sets 08:58:16 0° 70° (ENE) 4,843 10.5 -47.8°
